Location: Bakov nad Jizerou
(50.4784°N, 14.9394°E)
Time: 09:32:54
(UTC+00:00)

Cosmos 1725 Rocket - Visible Passes

Search period start: 28 October 2021 00:00
Search period end: 07 November 2021 00:00
Orbit: 961 x 991 km, 82.9° (Epoch: 27 October)

Date Brightness Start Highest point End Pass type
(mag) Time Alt. Az. Time Alt. Az. Time Alt. Az.
28 Oct 6.4 03:57:42 10° NNE 04:02:16 21° ENE 04:06:47 10° ESE visible
28 Oct 4.7 17:39:21 29° ENE 17:39:21 29° ENE 17:43:42 10° NNE visible
28 Oct 4.6 19:17:28 10° SSW 19:23:53 52° WNW 19:29:36 10° N visible
28 Oct 6.7 21:08:36 10° WNW 21:10:32 11° NW 21:12:28 10° NNW visible
29 Oct 5.8 04:22:48 10° N 04:28:20 33° ENE 04:33:51 10° SE visible
29 Oct 4.0 17:57:49 10° SSE 18:03:45 51° E 18:09:42 10° NNE visible
29 Oct 5.4 19:43:53 10° SW 19:49:25 33° WNW 19:54:58 10° N visible
30 Oct 6.8 03:05:16 10° NNE 03:07:14 11° NE 03:09:10 10° ENE visible
30 Oct 4.9 04:48:10 10° N 04:54:13 53° ENE 05:00:16 10° SSE visible
30 Oct 5.3 16:41:16 10° ESE 16:44:49 16° ENE 16:48:23 10° NE visible
30 Oct 3.8 18:23:03 10° S 18:29:16 84° E 18:35:29 10° N visible
30 Oct 6.1 20:10:58 10° WSW 20:15:30 21° WNW 20:20:03 10° NNW visible
31 Oct 6.5 03:29:20 10° NNE 03:33:34 19° ENE 03:37:46 10° ESE visible
31 Oct 4.1 05:13:42 10° N 05:19:56 87° E 05:26:09 10° S visible
31 Oct 4.8 17:04:55 10° SE 17:09:57 27° E 17:15:00 10° NNE visible
31 Oct 4.4 18:48:49 10° SSW 18:54:56 60° WNW 19:01:04 10° N visible
31 Oct 6.6 20:39:05 10° W 20:41:47 13° NW 20:44:30 10° NNW visible
01 Nov 5.9 03:54:20 10° N 03:59:41 29° ENE 04:05:01 10° SE visible
01 Nov 4.2 17:29:25 10° SSE 17:35:15 45° E 17:41:05 10° NNE visible
01 Nov 5.3 19:15:06 10° SW 19:20:46 37° WNW 19:26:29 10° N visible
02 Nov 7.0 02:38:11 10° NE 02:38:28 10° NE 02:38:44 10° NE visible
02 Nov 5.0 04:19:38 10° N 04:25:37 47° ENE 04:31:35 10° SSE visible
02 Nov 5.4 16:13:25 10° ESE 16:16:25 14° ENE 16:19:23 10° NE visible
02 Nov 3.8 17:54:32 10° S 18:00:43 75° E 18:06:54 10° NNE visible
02 Nov 6.0 19:41:59 10° WSW 19:46:48 23° WNW 19:51:38 10° N visible
03 Nov 6.6 03:01:01 10° NNE 03:04:51 17° ENE 03:08:40 10° E visible
03 Nov 4.2 04:45:09 10° N 04:51:22 78° E 04:57:35 10° SSE visible
03 Nov 4.9 16:36:44 10° SE 16:41:30 24° E 16:46:15 10° NNE visible
03 Nov 4.2 18:20:11 10° SSW 18:26:20 68° WNW 18:32:31 10° N visible
03 Nov 6.6 20:09:46 10° W 20:13:02 15° NW 20:16:19 10° NNW visible
04 Nov 6.0 03:25:53 10° N 03:31:01 26° ENE 03:36:09 10° ESE visible
04 Nov 4.0 05:10:50 10° NNW 05:16:57 65° W 05:23:05 10° S visible
04 Nov 4.3 17:01:05 10° SSE 17:06:45 39° E 17:12:25 10° NNE visible
04 Nov 5.1 18:46:20 10° SW 18:52:08 41° WNW 18:57:59 10° N visible
05 Nov 5.2 03:51:08 10° N 03:57:00 42° ENE 04:02:52 10° SE visible
05 Nov 3.9 17:26:03 10° S 17:32:10 66° E 17:38:18 10° NNE visible
05 Nov 5.9 19:13:03 10° WSW 19:18:07 26° WNW 19:23:13 10° N visible
06 Nov 6.7 02:32:44 10° NNE 02:36:07 15° NE 02:39:30 10° E visible
06 Nov 4.3 04:16:36 10° N 04:22:48 69° ENE 04:29:00 10° SSE visible
06 Nov 5.1 16:08:37 10° SE 16:13:03 21° E 16:17:29 10° NE visible
06 Nov 4.1 17:51:35 10° SSW 17:57:45 76° W 18:03:58 10° N visible
06 Nov 6.5 19:40:34 10° W 19:44:18 16° WNW 19:48:04 10° NNW visible
